Weather in Vyazishchi

Russia / Smolensk Oblast     55°00′53″N   35°01′21″E
В апреле 2022 года жителям России запретили посещать сайт meteo.paraplan.net по решению Генеральной прокуратуры. Аудитория сайта уменьшилась в 10 раз. Владельцы сайта не видят смысла в поддержке погодного сервера в таких условиях. Сайт будет закрыт в октябре.
temp.,
°C
wind,
m/s
gust,
m/s
humid.,
%
clouds,
%
prec.,
mm/h
press.,
hPa
HPBL,
m
25 september, sun
sun2500:00+6nw4895100 2.6 1000996
03:00+6nw51195100 4.3 1000798
06:00+6nw51195100 0.6 1001752
09:00+6wnw41096100 0.9 1002695
12:00+7wnw41095100 0.6 1004804
15:00+6wnw5895100 2.5 10051003
18:00+6wnw5895100 2.4 1006820
21:00+6wnw4995100 2.6 1007609
26 september, mon
mon2600:00+6w3896100 0.2 1008466
03:00+6w3995100 0.3 1009644
06:00+6wnw3895100 0.1 1009584
09:00+7w3794100 0.1 1010557
12:00+9wnw367788 0.0 1011838
15:00+11w366449 0.1 1011890
18:00+8wsw228058 0.0 101116
21:00+8sw2283100 0.0 101257
27 september, tue
tue2700:00+8sw2284100 0.0 101160
03:00+7sw2486100 0.0 101195
06:00+7sw1186100 0.0 101120
09:00+9s2382100 0.1 1011245
12:00+9s2387100 0.3 1011212
15:00+8se249194 0.6 1011173
18:00+9ene258990 0.1 1010173
21:00+7e389485 0.1 1010244
28 september, wed
wed2800:00+7e31194100 0.0 1009355
03:00+7e41284100 0.0 1007505
06:00+7ene51394100 1.6 1005592
09:00+7e51296100 4.6 1003624
12:00+8e51296100 1.8 1001562
15:00+9e41098100 3.4 1000442
18:00+9e3999100 1.6 1000358
21:00+10ese2799100 2.4 1001339
29 september, thu
thu2900:00+10ssw3799100 0.8 1002405
03:00+9wsw3897100 0.8 1004483
06:00+8wsw3896100 0.0 1007551
09:00+9wsw2892100 0.0 1009561
12:00+12w3578100 0.0 1011875
15:00+14wsw2465100 0.0 1013914
18:00+10sw1183100 0.0 101510
21:00+10se2386100 0.0 101650